Time,TemperatureF,DewpointF,PressureIn,WindDirection,WindDirectionDegrees,WindSpeedMPH,WindSpeedGustMPH,Humidity,HourlyPrecipIn,Conditions,Clouds,dailyrainin,SoftwareType,DateUTC
2017-09-24 00:14:00,60.3,38.3,29.87,South,190,0.0,0.0,44,0.00,,,0.00,meteobridge,2017-09-24 07:14:00,
2017-09-24 00:44:00,58.3,37.6,29.88,South,190,0.0,0.0,46,0.00,,,0.00,meteobridge,2017-09-24 07:44:00,
2017-09-24 01:14:00,56.8,38.8,29.88,South,190,0.0,0.0,51,0.00,,,0.00,meteobridge,2017-09-24 08:14:00,
2017-09-24 01:44:00,55.2,38.8,29.89,South,190,0.0,0.0,54,0.00,,,0.00,meteobridge,2017-09-24 08:44:00,
2017-09-24 02:14:00,54.7,39.7,29.90,South,190,0.9,2.0,57,0.00,,,0.00,meteobridge,2017-09-24 09:14:00,
2017-09-24 02:44:00,53.8,37.9,29.90,West,265,0.0,2.0,55,0.00,,,0.00,meteobridge,2017-09-24 09:44:00,
2017-09-24 03:14:00,53.4,37.2,29.90,West,265,0.0,0.0,54,0.00,,,0.00,meteobridge,2017-09-24 10:14:00,
2017-09-24 03:44:00,53.6,38.3,29.91,West,265,2.0,3.0,56,0.00,,,0.00,meteobridge,2017-09-24 10:44:00,
2017-09-24 04:14:00,54.7,38.3,29.91,West,265,0.9,3.0,54,0.00,,,0.00,meteobridge,2017-09-24 11:14:00,
2017-09-24 04:45:00,55.0,38.3,29.91,West,266,0.0,2.0,53,0.00,,,0.00,meteobridge,2017-09-24 11:45:00,
2017-09-24 05:15:00,54.3,37.9,29.91,West,268,0.0,1.0,54,0.00,,,0.00,meteobridge,2017-09-24 12:15:00,
2017-09-24 05:45:00,53.1,38.3,29.91,West,268,0.0,0.0,57,0.00,,,0.00,meteobridge,2017-09-24 12:45:00,
2017-09-24 06:15:00,52.3,38.8,29.92,West,268,0.0,0.0,60,0.00,,,0.00,meteobridge,2017-09-24 13:15:00,
2017-09-24 06:45:00,51.3,39.0,29.93,West,268,0.0,0.0,63,0.00,,,0.00,meteobridge,2017-09-24 13:45:00,
2017-09-24 07:15:00,50.5,39.2,29.93,West,268,0.0,0.0,65,0.00,,,0.00,meteobridge,2017-09-24 14:15:00,
2017-09-24 07:45:00,52.3,40.5,29.94,West,269,0.0,0.0,64,0.00,,,0.00,meteobridge,2017-09-24 14:45:00,
2017-09-24 08:15:00,57.0,40.5,29.95,West,269,0.0,1.0,54,0.00,,,0.00,meteobridge,2017-09-24 15:15:00,
2017-09-24 08:45:00,61.0,40.1,29.96,WSW,255,2.0,4.0,46,0.00,,,0.00,meteobridge,2017-09-24 15:45:00,
2017-09-24 09:15:00,61.3,39.7,29.96,West,265,2.0,5.0,45,0.00,,,0.00,meteobridge,2017-09-24 16:15:00,
2017-09-24 09:45:00,62.8,39.9,29.96,NW,318,4.9,5.0,43,0.00,,,0.00,meteobridge,2017-09-24 16:45:00,
2017-09-24 10:15:00,65.8,40.1,29.96,NNE,15,0.0,2.0,39,0.00,,,0.00,meteobridge,2017-09-24 17:15:00,
2017-09-24 10:45:00,71.4,41.5,29.96,West,275,0.9,3.0,34,0.00,,,0.00,meteobridge,2017-09-24 17:45:00,
2017-09-24 11:15:00,74.5,40.1,29.96,NW,309,2.9,5.0,29,0.00,,,0.00,meteobridge,2017-09-24 18:15:00,
2017-09-24 11:45:00,79.3,38.3,29.95,West,275,2.0,2.0,23,0.00,,,0.00,meteobridge,2017-09-24 18:45:00,
2017-09-24 12:15:00,81.0,38.5,29.95,West,267,2.9,4.0,22,0.00,,,0.00,meteobridge,2017-09-24 19:15:00,
2017-09-24 12:45:00,85.5,39.7,29.94,WNW,287,4.0,6.0,20,0.00,,,0.00,meteobridge,2017-09-24 19:45:00,
2017-09-24 13:15:00,84.6,37.8,29.94,South,185,0.0,6.0,19,0.00,,,0.00,meteobridge,2017-09-24 20:15:00,
2017-09-24 13:45:00,82.9,39.0,29.93,West,268,2.0,3.0,21,0.00,,,0.00,meteobridge,2017-09-24 20:45:00,
2017-09-24 14:45:00,88.0,36.1,29.91,West,262,0.0,4.0,16,0.00,,,0.00,meteobridge,2017-09-24 21:45:00,
2017-09-24 15:15:00,89.4,37.4,29.91,NW,313,4.0,7.0,16,0.00,,,0.00,meteobridge,2017-09-24 22:15:00,
2017-09-24 15:45:00,90.3,32.9,29.90,WSW,254,2.0,10.0,13,0.00,,,0.00,meteobridge,2017-09-24 22:45:00,
2017-09-24 16:15:00,89.8,32.4,29.89,SSW,203,2.9,8.0,13,0.00,,,0.00,meteobridge,2017-09-24 23:15:00,
2017-09-24 16:45:00,87.1,32.2,29.89,SSW,209,2.0,5.0,14,0.00,,,0.00,meteobridge,2017-09-24 23:45:00,
2017-09-24 17:15:00,89.4,30.2,29.89,NW,316,2.9,5.0,12,0.00,,,0.00,meteobridge,2017-09-25 00:15:00,
2017-09-24 17:50:00,88.0,32.9,29.89,WNW,298,2.0,5.0,14,0.00,,,0.00,meteobridge,2017-09-25 00:50:00,
2017-09-24 18:15:00,85.5,34.2,29.90,WNW,286,0.9,3.0,16,0.00,,,0.00,meteobridge,2017-09-25 01:15:00,
2017-09-24 18:45:00,81.1,35.1,29.90,West,275,0.9,2.0,19,0.00,,,0.00,meteobridge,2017-09-25 01:45:00,
2017-09-24 19:15:00,78.1,37.2,29.90,West,275,0.0,0.0,23,0.00,,,0.00,meteobridge,2017-09-25 02:15:00,
2017-09-24 19:45:00,75.0,38.8,29.90,West,275,0.0,0.0,27,0.00,,,0.00,meteobridge,2017-09-25 02:45:00,
2017-09-24 20:15:00,72.7,39.4,29.91,West,275,0.0,0.0,30,0.00,,,0.00,meteobridge,2017-09-25 03:15:00,
2017-09-24 20:45:00,70.9,40.3,29.91,West,275,0.0,0.0,33,0.00,,,0.00,meteobridge,2017-09-25 03:45:00,
2017-09-24 21:15:00,68.5,41.9,29.91,West,275,0.0,0.0,38,0.00,,,0.00,meteobridge,2017-09-25 04:15:00,
2017-09-24 21:45:00,66.9,40.5,29.91,West,275,0.0,0.0,38,0.00,,,0.00,meteobridge,2017-09-25 04:45:00,
2017-09-24 22:15:00,65.8,40.1,29.91,SSW,192,4.0,4.0,39,0.00,,,0.00,meteobridge,2017-09-25 05:15:00,
2017-09-24 22:45:00,64.9,40.1,29.91,South,190,2.0,3.0,40,0.00,,,0.00,meteobridge,2017-09-25 05:45:00,
2017-09-24 23:15:00,64.9,40.1,29.90,SSW,197,2.0,3.0,40,0.00,,,0.00,meteobridge,2017-09-25 06:15:00,